Regional Weather Roundup
Issued by NWS

Home | Current Version | Previous Version | Text Only | Print | Product List | Glossary Off
Versions: 1 2 3 4 5 6 7 8 9 10 11 12 13 14 15 16 17 18 19 20 21 22 23 24 25 26 27 28 29 30 31 32 33 34 35 36 37 38 39 40 41 42 43 44 45 46 47 48 49 50

000
ASUS43 KDMX 241901
RWRIA

WEATHER ROUNDUP FOR IOWA
NATIONAL WEATHER SERVICE DES MOINES IA
100 PM CST FRI NOV 24 2017

NOTE: "FAIR" INDICATES FEW OR NO CLOUDS BELOW 12,000 FEET WITH NO
SIGNIFICANT WEATHER AND/OR OBSTRUCTIONS TO VISIBILITY.

* - THESE STATIONS ARE NOT NWS STATIONS...THUS NOT UNDER NWS
QUALITY CONTROL.  THEY ALSO DO NOT REPORT WEATHER SUCH
AS PRECIPITATION OR FOG.

IAZ001>003-012>014-020>022-031>034-043>046-242000-
   NORTHWEST IOWA

CITY           SKY/WX    TMP DP  RH WIND       PRES   REMARKS
CARROLL *      SUNNY     66  41  39 W28G36    29.48R
CHEROKEE *     MOSUNNY   63  40  43 NW21G32   29.53R
DENISON *      SUNNY     64  41  42 NW14G26   29.53R
LE MARS *      SUNNY     66  41  39 N29G39    29.55R
ORANGE CITY *  SUNNY     66  43  42 NW21G37   29.53R
SHELDON *      SUNNY     64  41  42 NW32G41   29.50R
SIOUX CITY     SUNNY     67  39  35 N35G44    29.53R
SPENCER        SUNNY     64  40  41 NW31G41   29.50R
STORM LAKE *   SUNNY     63  41  45 NW28G36   29.51R
$$

IAZ055>058-069>071-079>083-090>094-242000-
   SOUTHWEST IOWA

CITY           SKY/WX    TMP DP  RH WIND       PRES   REMARKS
ATLANTIC *     SUNNY     68  41  37 W23G30    29.48R
AUDUBON *      SUNNY     66  41  39 W13G18    29.49R
CLARINDA *     SUNNY     73  43  33 SW10G24     N/A
COUNCIL BLFS * SUNNY     70  43  37 NW14G23   29.51R
CRESTON *      SUNNY     68  41  37 W20G26    29.48S
HARLAN  *      SUNNY     66  41  39 NW22G30   29.53R
LAMONI         SUNNY     69  41  36 SW18G29   29.47F
RED OAK *      SUNNY     72  41  33 W13G22    29.49R
SHENANDOAH *   SUNNY     73  41  31 W20       29.50S
$$

IAZ047>049-059>061-072>074-084-242000-
   CENTRAL IOWA

CITY           SKY/WX    TMP DP  RH WIND       PRES   REMARKS
AMES           SUNNY     67  42  40 W18       29.43R
ANKENY *       SUNNY     68  41  37 W14G21    29.44R
BOONE *        SUNNY     66  41  39 W17G24    29.41S
CHARITON *     SUNNY     70  39  32 SW20G26   29.45S
DES MOINES     MOSUNNY   69  40  34 SW21      29.43F
GRINNELL*      SUNNY     66  38  35 SW22      29.43F
KNOXVILLE *    SUNNY     70  39  32 SW15G24   29.42F
MARSHALLTOWN   SUNNY     66  41  40 SW23      29.41S
NEWTON *       SUNNY     68  39  34 SW24      29.42R
PELLA *        SUNNY     68  37  31 SW13G22   29.43F
PERRY *          N/A     66  37  33 W18G29    29.45R
$$

IAZ004>006-015-016-023>025-035-036-242000-
   NORTH CENTRAL IOWA

CITY           SKY/WX    TMP DP  RH WIND       PRES   REMARKS
ALGONA *       SUNNY     63  41  45 NW23G30   29.46R
CLARION *      SUNNY     66  43  42 NW21G29   29.44R
ESTHERVILLE    SUNNY     63  41  44 NW30G39   29.47R
FORT DODGE *   SUNNY     66  43  43 NW16G26   29.46R
MASON CITY     SUNNY     62  41  46 W23G29    29.43R
FOREST CITY *    N/A     63  41  45 NW21G28   29.43R
WEBSTER CITY * SUNNY     66  41  39 W21       29.42R
IOWA FALLS *     N/A     65  42  44 SW18      29.42S
$$

IAZ007>011-017>019-026>030-037>042-050>054-066-242000-
   NORTHEAST IOWA

CITY           SKY/WX    TMP DP  RH WIND       PRES   REMARKS
CEDAR RAPIDS   SUNNY     71  39  31 SW17G33   29.38F
CHARLES CITY * SUNNY     63  41  45 SW14G22   29.37F
CLINTON *      SUNNY     69  40  34 SW26G32   29.43F
DECORAH *      SUNNY     61  39  44 SW13G23   29.36F
DUBUQUE        SUNNY     66  38  35 SW22G31   29.39F
MONTICELLO *   SUNNY     70  39  32 SW21G31   29.39F
OELWEIN *      SUNNY     64  41  42 SW17G23   29.40R
WATERLOO       SUNNY     65  39  38 W17G28    29.40S
$$

IAZ064-065-067-068-078-242000-
   EAST CENTRAL IOWA

CITY           SKY/WX    TMP DP  RH WIND       PRES   REMARKS
DAVENPORT      SUNNY     66  37  34 S22G32    29.46F
IOWA CITY      SUNNY     72  39  30 SW22G32   29.42F
MT. PLEASANT * SUNNY     70  37  29 S28G33    29.46F
MUSCATINE *    SUNNY     72  39  30 SW23G32   29.43F
QUAD CITIES    SUNNY     70  38  31 S25G35    29.43F
$$

IAZ062-063-075>077-085>089-095>099-242000-
   SOUTHEAST IOWA

CITY           SKY/WX    TMP DP  RH WIND       PRES   REMARKS
BURLINGTON     SUNNY     70  40  33 S21G30    29.48F
FAIRFIELD *    SUNNY     72  37  28 SW23G35   29.44F
FORT MADISON * SUNNY     70  39  32 S17G25    29.49F
KEOKUK *       SUNNY     72  37  28 SW24G32   29.49F
OSKALOOSA *      N/A     69  38  32 SW26G33   29.43F
OTTUMWA        SUNNY     70  38  31 SW21G31   29.44F
WASHINGTON *   SUNNY     72  39  30 SW20G32   29.44F
$$

ABBREVIATIONS USED IN REMARKS
   TC - TEMPERATURES IN CELSIUS
  WCI - WIND CHILL INDEX
   HX - HEAT INDEX
  VSB - VISIBILITY
$$




USA.gov is the U.S. government's official web portal to all federal, state and local government web resources and services.